Regional Weather Roundup
Issued by NWS

Home | Current Version | Previous Version | Text Only | Print | Product List | Glossary Off
Versions: 1 2 3 4 5 6 7 8 9 10 11 12 13 14 15 16 17 18 19 20 21 22 23 24 25 26 27

000
ASUS45 KTFX 190010
RWRMT
MONTANA REGIONAL WEATHER ROUNDUP
NATIONAL WEATHER SERVICE GREAT FALLS MT
500 PM MST WED JAN 18 2017

NOTE: "FAIR" INDICATES FEW OR NO CLOUDS BELOW 12000 FEET WITH NO
SIGNIFICANT WEATHER AND/OR OBSTRUCTIONS TO VISIBILITY.

MTZ001>007-043-190100-
WEST OF THE DIVIDE

CITY           SKY/WX    TMP DP  RH WIND       PRES   REMARKS
KALISPELL      LGT SNOW  30  28  92 CALM      29.62S
MISSOULA       PTCLDY    25  20  81 S5        29.64F
BUTTE          CLOUDY    34  22  61 W3        29.69S
MULLAN PASS    CLOUDY    33  30  88 VRB3      29.58F
ANACONDA         N/A     43  27  52 SW6       29.64F
DEER LODGE       N/A     43  28  56 S15G21    29.62F
EUREKA           N/A     37  34  87 S17       29.56F WCI  28
HAMILTON         N/A     46  27  46 SE13      29.61F
PLAINS           N/A     31  24  75 CALM      29.65
RONAN            N/A     32  29  89 CALM      29.67F
$$

MTZ008-052>055-190100-
SOUTHWEST MONTANA

CITY           SKY/WX    TMP DP  RH WIND       PRES   REMARKS
BOZEMAN        CLOUDY    28  21  75 W6        29.70S WCI  22
DILLON         CLOUDY    38  19  46 S9        29.73R WCI  31
W YELLOWSTONE  CLOUDY    21  16  79 NW3       29.87R
ENNIS          CLOUDY    34  19  55 S24G31    29.78R WCI  21
TWIN BRIDGES     N/A     31  16  54 SE13      29.77R WCI  21
$$

MTZ009-010-012-014-046-048-049-054-190100-
EAST SLOPES AND CENTRAL MONTANA

CITY           SKY/WX    TMP DP  RH WIND       PRES   REMARKS
CUT BANK       PTCLDY    45  33  63 SW22G31   29.48R
GREAT FALLS    CLEAR     43  29  57 S14       29.52R
MALMSTROM AFB  CLEAR     43  29  58 S14       29.53S
HELENA         CLOUDY    24  17  74 S5        29.63F HAZE
CHOTEAU          N/A     45  32  61 SW14      29.51S
CONRAD           N/A     39  35  85 S10       29.55S
$$

MTZ011-013-016-021-045-047-050-051-190100-
NORTH CENTRAL MONTANA

CITY           SKY/WX    TMP DP  RH WIND       PRES   REMARKS
HAVRE          CLOUDY    44  32  62 SW20      29.44F
LEWISTOWN      CLOUDY    42  28  57 SW17      29.56F
N BAR RANCH      N/A     48  27  43 E3        29.58S
CHINOOK          N/A     50  32  50 W15G21    29.43F
FORT BENTON      N/A     52  28  40 MISG      29.51S
$$

MTZ017>020-022>027-061-062-190100-
NORTHEAST MONTANA

CITY           SKY/WX    TMP DP  RH WIND       PRES   REMARKS
GLASGOW        CLEAR     35  28  75 SE10      29.52  WCI  27
JORDAN           N/A     41  28  60 W6        29.54S
SIDNEY         CLOUDY    33  25  72 SW10      29.59R WCI  25
WOLF POINT     CLOUDY    30  23  75 N5        29.55S
PLENTYWOOD       N/A     34  28  80 SE7       29.55R WCI  28
POPLAR           N/A     37  27  65 SE6       29.55F
SCOBEY           N/A     35  24  64 SE5       29.53S
$$

MTZ028>42-056>058-190100-
SOUTHCENTRAL AND SOUTHEAST MONTANA

CITY           SKY/WX    TMP DP  RH WIND       PRES   REMARKS
BAKER          CLOUDY    31  23  72 CALM      29.64R
BILLINGS       CLOUDY    40  24  53 SW13      29.62F
LIVINGSTON     CLOUDY    44  16  32 SW25G31   29.66F
MILES CITY     CLOUDY    33  23  66 SE12      29.61R WCI  24
BIG TIMBER     CLEAR     45  18  33 W22G29    29.65F
FORSYTH          N/A     45  25  45 N5        29.59R
LAUREL           N/A     40  22  49 SW6       29.64F
$$

REGIONAL REPORTS...DAKOTAS

CITY           SKY/WX    TMP DP  RH WIND       PRES   REMARKS
WILLISTON      CLOUDY    31  24  75 SW6       29.57S WCI  25
MINOT          CLEAR     40  28  62 S12       29.55S
DICKINSON      CLOUDY    40  25  55 W14G20    29.60R
BEACH            N/A     36  27  69 SW15      29.62F WCI  26
CROSBY           N/A     32  27  80 S14       29.55R WCI  22
TIOGA            N/A     36  28  75 SW9       29.56S WCI  29
WATFORD CITY     N/A     34  27  75 SW7       29.58S WCI  28
BISMARCK       CLOUDY    27  21  78 E5        29.66S
GRAND FORKS    CLOUDY    29  22  75 SE13      29.67S WCI  19
FARGO          CLEAR     34  26  72 S12       29.72F WCI  25
BUFFALO SD       N/A     36  26  67 SW7       29.56F WCI  30
RAPID CITY     CLOUDY    32  24  72 SE3       29.62F
$$

REGIONAL REPORTS...WYOMING/IDAHO/WASHINGTON

CITY           SKY/WX    TMP DP  RH WIND       PRES   REMARKS
GILLETTE       CLOUDY    41  24  51 S10       29.64F
SHERIDAN       CLOUDY    27  19  72 MISG      29.62S
BUFFALO WY     CLOUDY    41  25  53 NW7       29.64F
CODY           CLOUDY    30  21  69 SE6       29.70F WCI  24
YELLOWSTONE LA   N/A     17  14  88 NW3       29.84F
IDAHO FALLS    CLOUDY    15   9  76 NE7       29.92S WCI   5
SALMON         CLOUDY    12   9  85 CALM      29.82F
BOISE          SNOW      30  28  92 SE15      29.79F VSB 1/2 WCI  19
SPOKANE        CLOUDY    40  33  76 SE6       29.55F
$$

REGIONAL REPORTS...ALBERTA

CITY           SKY/WX    TMP DP  RH WIND       PRES   REMARKS
EDMONTON       MOCLDY    39  27  60 E3        29.16F
CALGARY        PTCLDY    41  28  60 N6        29.25R
LETHBRIDGE     PTCLDY    41  32  70 SW10      29.39R
MEDICINE HAT   PTCLDY    45  36  70 SW14      29.36F
WATERTON GATE    N/A     41  32  70 SW29G43     N/A
CARDSTON         N/A     45  30  57 SW7         N/A
MILK RIVER       N/A     43  34  70 SW16        N/A
ONEFOUR          N/A     37  32  81 NE10        N/A  WCI  30
$$

REGIONAL REPORTS...SASKATCHEWAN

CITY           SKY/WX    TMP DP  RH WIND       PRES   REMARKS
SWIFT CURRENT  MOCLDY    39  34  81 SW15      29.37F WCI  31
REGINA         MOCLDY    37  30  75 SW15      29.42F WCI  28
SASKATOON      MOCLDY    39  32  75 SW12      29.29F WCI  32
CYPRESS HILLS    N/A     41  30  65 SW12G18     N/A
VAL MARIE        N/A     39  30  70 S6          N/A
ROCKGLEN         N/A     39  30  70 SW10        N/A
ASSINIBOIA       N/A     37  34  87 S7          N/A
$$




USA.gov is the U.S. government's official web portal to all federal, state and local government web resources and services.